When you browse on this site, cookies collect data to enhance your experience and personalize the content and advertising you see.
Visit our Privacy Policy to learn more. By continuing to use the site, you agree to this use of cookies and data.
  • In Lithuania
  • List of Countries
  • For 7 days
  • Water Temperature
  • Weather Map
  • Weather Widgets
  • user-avatar
    Login

    Hourly Weather Warwick

    Today, 25 February, Tuesday

    Time Temperature Precipitation Wind Pressure Humidity
    00:00 +3°C° 0 mm 6 mps 748 mmHg 84%
    01:00 +2°C° 0 mm 6 mps 747 mmHg 84%
    02:00 +2°C° 0 mm 6 mps 747 mmHg 84%
    03:00 +2°C° 0 mm 6 mps 746 mmHg 84%
    04:00 +1°C° 0 mm 6 mps 746 mmHg 85%
    05:00 +1°C° 0 mm 5 mps 746 mmHg 85%
    06:00 +1°C° 0 mm 4 mps 746 mmHg 91%
    07:00 +1°C° 0 mm 5 mps 745 mmHg 86%
    08:00 +2°C° 0 mm 5 mps 745 mmHg 81%
    09:00 +3°C° 0 mm 6 mps 744 mmHg 76%
    10:00 +3°C° 0.1 mm 6 mps 744 mmHg 74%
    11:00 +4°C° 0.1 mm 6 mps 744 mmHg 72%
    12:00 +5°C° 0.1 mm 7 mps 743 mmHg 69%
    13:00 +5°C° 0.3 mm 7 mps 743 mmHg 68%
    14:00 +5°C° 0.3 mm 7 mps 742 mmHg 67%
    15:00 +5°C° 0.3 mm 7 mps 741 mmHg 66%
    16:00 +3°C° 0.3 mm 6 mps 741 mmHg 72%
    17:00 +2°C° 0.3 mm 6 mps 741 mmHg 79%
    18:00 +1°C° 0.3 mm 6 mps 740 mmHg 86%
    19:00 +1°C° 0.3 mm 6 mps 741 mmHg 88%
    20:00 -1°C° 0.3 mm 6 mps 741 mmHg 89%
    21:00 -1°C° 0.3 mm 6 mps 741 mmHg 91%
    22:00 -1°C° 0.1 mm 7 mps 741 mmHg 88%
    23:00 -1°C° 0.1 mm 7 mps 742 mmHg 85%

    Tomorrow, 26 February, Wednesday

    Time Temperature Precipitation Wind Pressure Humidity
    00:00 -1°C° 0.1 mm 7 mps 742 mmHg 82%
    01:00 -1°C° 0 mm 6 mps 742 mmHg 83%
    02:00 -2°C° 0 mm 6 mps 742 mmHg 84%
    03:00 -2°C° 0 mm 6 mps 743 mmHg 85%
    04:00 -2°C° 0 mm 6 mps 743 mmHg 85%
    05:00 -1°C° 0 mm 5 mps 744 mmHg 85%
    06:00 -1°C° 0 mm 5 mps 744 mmHg 85%
    07:00 -1°C° 0 mm 6 mps 745 mmHg 83%
    08:00 -1°C° 0 mm 6 mps 746 mmHg 82%
    09:00 0°C° 0 mm 7 mps 746 mmHg 80%
    10:00 +2°C° 0 mm 7 mps 747 mmHg 75%
    11:00 +2°C° 0 mm 8 mps 748 mmHg 70%
    12:00 +3°C° 0 mm 9 mps 749 mmHg 65%
    13:00 +4°C° 0 mm 8 mps 749 mmHg 63%
    14:00 +4°C° 0 mm 8 mps 749 mmHg 60%
    15:00 +4°C° 0 mm 7 mps 750 mmHg 57%
    16:00 +3°C° 0 mm 6 mps 750 mmHg 63%
    17:00 +2°C° 0 mm 5 mps 750 mmHg 68%
    18:00 0°C° 0 mm 4 mps 750 mmHg 73%
    19:00 0°C° 0 mm 4 mps 750 mmHg 76%
    20:00 0°C° 0 mm 4 mps 750 mmHg 79%
    21:00 -1°C° 0 mm 4 mps 749 mmHg 83%
    22:00 0°C° 0 mm 4 mps 749 mmHg 84%
    23:00 0°C° 0 mm 4 mps 748 mmHg 85%

    Day after tomorrow, 27 February, Thursday

    Time Temperature Precipitation Wind Pressure Humidity
    00:00 0°C° 0 mm 4 mps 747 mmHg 86%
    01:00 0°C° 0.1 mm 4 mps 746 mmHg 89%
    02:00 0°C° 0.1 mm 4 mps 745 mmHg 92%
    03:00 0°C° 0.1 mm 4 mps 743 mmHg 95%
    04:00 0°C° 1.4 mm 4 mps 742 mmHg 96%
    05:00 +1°C° 1.4 mm 3 mps 740 mmHg 97%
    06:00 0°C° 1.4 mm 3 mps 739 mmHg 98%
    07:00 -1°C° 1.3 mm 4 mps 738 mmHg 98%
    08:00 -1°C° 1.3 mm 4 mps 738 mmHg 98%
    09:00 -1°C° 1.3 mm 4 mps 737 mmHg 98%
    10:00 -2°C° 0.8 mm 6 mps 738 mmHg 97%
    11:00 -1°C° 0.8 mm 7 mps 740 mmHg 96%
    12:00 -1°C° 0.8 mm 8 mps 741 mmHg 94%
    13:00 0°C° 0.1 mm 8 mps 742 mmHg 89%
    14:00 0°C° 0.1 mm 8 mps 743 mmHg 84%
    15:00 +1°C° 0.1 mm 8 mps 745 mmHg 78%
    16:00 +2°C° 0 mm 7 mps 746 mmHg 80%
    17:00 +1°C° 0 mm 6 mps 747 mmHg 82%
    18:00 0°C° 0 mm 5 mps 748 mmHg 84%
    19:00 0°C° 0 mm 5 mps 749 mmHg 85%
    20:00 0°C° 0 mm 5 mps 750 mmHg 86%
    21:00 -1°C° 0 mm 4 mps 751 mmHg 88%
    22:00 -1°C° 0 mm 4 mps 752 mmHg 88%
    23:00 -1°C° 0 mm 4 mps 752 mmHg 89%

    28 February, Friday

    Time Temperature Precipitation Wind Pressure Humidity
    00:00 -1°C° 0 mm 4 mps 753 mmHg 89%
    01:00 -1°C° 0 mm 4 mps 753 mmHg 89%
    02:00 0°C° 0 mm 3 mps 753 mmHg 89%
    03:00 0°C° 0 mm 3 mps 753 mmHg 88%
    04:00 0°C° 0 mm 3 mps 753 mmHg 88%
    05:00 0°C° 0 mm 3 mps 753 mmHg 88%
    06:00 0°C° 0 mm 3 mps 753 mmHg 88%
    07:00 +1°C° 0 mm 3 mps 753 mmHg 86%
    08:00 +2°C° 0 mm 2 mps 753 mmHg 85%
    09:00 +3°C° 0 mm 2 mps 753 mmHg 83%
    10:00 +3°C° 0 mm 3 mps 753 mmHg 83%
    11:00 +3°C° 0 mm 4 mps 752 mmHg 82%
    12:00 +4°C° 0 mm 4 mps 752 mmHg 81%
    13:00 +2°C° 0.2 mm 5 mps 751 mmHg 86%
    14:00 +2°C° 0.2 mm 6 mps 749 mmHg 91%
    15:00 0°C° 0.2 mm 7 mps 748 mmHg 96%
    16:00 +2°C° 0.2 mm 7 mps 747 mmHg 96%
    17:00 +2°C° 0.2 mm 6 mps 746 mmHg 95%
    18:00 +2°C° 0.2 mm 6 mps 745 mmHg 94%
    19:00 +3°C° 0.2 mm 6 mps 745 mmHg 95%
    20:00 +4°C° 0.2 mm 6 mps 744 mmHg 96%
    21:00 +5°C° 0.2 mm 5 mps 743 mmHg 97%
    22:00 +5°C° 0.3 mm 6 mps 742 mmHg 96%
    23:00 +6°C° 0.3 mm 7 mps 741 mmHg 94%

    29 February, Saturday

    Time Temperature Precipitation Wind Pressure Humidity
    00:00 +8°C° 0.3 mm 7 mps 740 mmHg 92%
    01:00 +8°C° 0 mm 7 mps 739 mmHg 91%
    02:00 +7°C° 0 mm 8 mps 737 mmHg 91%
    03:00 +6°C° 0 mm 8 mps 736 mmHg 90%
    04:00 +7°C° 0.3 mm 9 mps 734 mmHg 90%
    05:00 +7°C° 0.3 mm 10 mps 733 mmHg 90%
    06:00 +7°C° 0.3 mm 11 mps 731 mmHg 90%
    07:00 +6°C° 1.3 mm 9 mps 731 mmHg 89%
    08:00 +6°C° 1.3 mm 7 mps 730 mmHg 89%
    09:00 +5°C° 1.3 mm 6 mps 730 mmHg 89%
    10:00 +4°C° 0.6 mm 7 mps 731 mmHg 89%
    11:00 +4°C° 0.6 mm 8 mps 731 mmHg 89%
    12:00 +2°C° 0.6 mm 9 mps 732 mmHg 89%
    13:00 +2°C° 0.2 mm 9 mps 733 mmHg 82%
    14:00 +2°C° 0.2 mm 8 mps 734 mmHg 74%
    15:00 +4°C° 0.2 mm 8 mps 735 mmHg 67%
    16:00 +3°C° 0 mm 7 mps 735 mmHg 69%
    17:00 +2°C° 0 mm 6 mps 736 mmHg 71%
    18:00 +1°C° 0 mm 5 mps 737 mmHg 73%
    19:00 +1°C° 0 mm 6 mps 738 mmHg 76%
    20:00 -1°C° 0 mm 6 mps 738 mmHg 78%
    21:00 -1°C° 0 mm 6 mps 739 mmHg 80%
    22:00 -1°C° 0 mm 6 mps 739 mmHg 80%
    23:00 -1°C° 0 mm 6 mps 739 mmHg 81%

    1 March, Sunday

    Time Temperature Precipitation Wind Pressure Humidity
    00:00 -1°C° 0 mm 6 mps 740 mmHg 81%
    01:00 -1°C° 0.2 mm 6 mps 740 mmHg 84%
    02:00 -1°C° 0.2 mm 6 mps 740 mmHg 87%
    03:00 -1°C° 0.2 mm 6 mps 740 mmHg 90%
    04:00 0°C° 0.1 mm 5 mps 740 mmHg 91%
    05:00 0°C° 0.1 mm 5 mps 740 mmHg 92%
    06:00 0°C° 0.1 mm 5 mps 740 mmHg 93%
    07:00 +1°C° 0.1 mm 5 mps 740 mmHg 92%
    08:00 +1°C° 0.1 mm 5 mps 740 mmHg 91%
    09:00 +2°C° 0.1 mm 6 mps 740 mmHg 90%
    10:00 +3°C° 0.2 mm 6 mps 740 mmHg 84%
    11:00 +4°C° 0.2 mm 6 mps 739 mmHg 78%
    12:00 +5°C° 0.2 mm 6 mps 739 mmHg 72%
    13:00 +5°C° 0.2 mm 6 mps 739 mmHg 70%
    14:00 +5°C° 0.2 mm 6 mps 739 mmHg 67%
    15:00 +5°C° 0.2 mm 6 mps 739 mmHg 65%
    16:00 +4°C° 0.1 mm 6 mps 740 mmHg 69%
    17:00 +3°C° 0.1 mm 5 mps 740 mmHg 73%
    18:00 +3°C° 0.1 mm 4 mps 741 mmHg 77%
    19:00 +1°C° 0 mm 4 mps 741 mmHg 80%
    20:00 +1°C° 0 mm 4 mps 741 mmHg 83%
    21:00 0°C° 0 mm 4 mps 742 mmHg 86%
    22:00 +1°C° 0 mm 3 mps 742 mmHg 87%
    23:00 0°C° 0 mm 3 mps 742 mmHg 88%
    Show more